GFSFLT1_850_thetae_036.txt.gz
Theta_e
316 312 312 311 312 312 311 312 316 318 315 312 310 312 314 311 310 311 314 316 317 321 324 325 325 321 315 317 318 320 317 315 311
316 312 311 311 311 311 311 312 313 313 314 314 313 313 312 312 312 311 310 311 318 321 326 326 328 326 321 326 323 316 313 311 310
321 314 312 312 312 312 313 314 314 315 318 316 317 317 318 320 322 320 317 312 313 320 323 327 326 325 329 329 328 328 329 320 316
315 314 315 315 315 315 316 316 317 318 318 319 320 321 324 324 324 324 323 321 320 317 317 326 326 325 321 322 323 328 326 327 327
321 319 318 317 317 317 318 319 319 320 322 322 323 324 324 325 325 325 326 326 326 326 325 323 324 323 322 321 315 312 323 324 328
322 320 320 320 320 320 321 321 322 323 325 326 328 328 328 328 328 328 328 328 328 327 327 327 327 326 326 327 326 324 321 316 321
323 322 322 322 321 322 323 324 326 327 328 328 328 328 328 328 328 327 327 327 327 328 328 328 328 328 327 327 327 326 326 325 324
323 323 323 323 325 326 327 327 328 328 328 328 328 327 327 328 328 327 326 326 326 327 329 327 327 328 328 328 328 327 330 328 328
326 326 326 327 327 328 329 329 328 328 328 327 327 327 327 328 327 324 325 326 326 326 325 326 326 327 327 327 329 329 328 328 327
328 327 327 328 329 330 328 328 327 327 327 327 328 328 327 325 322 321 323 324 324 324 323 324 324 325 326 326 326 326 326 326 326
329 329 330 329 330 328 327 327 327 326 326 325 324 316 312 313 315 316 317 317 315 314 315 317 319 321 322 324 325 326 325 325 323
331 330 329 329 327 326 326 326 325 325 319 311 311 311 310 309 309 310 309 308 307 310 312 315 317 318 317 319 319 321 323 323 321
328 329 329 326 326 325 324 317 311 311 310 309 308 307 306 305 305 305 307 310 311 311 311 312 312 313 312 310 310 312 314 314 314
329 328 327 325 315 311 311 310 309 308 308 307 306 305 304 303 305 307 307 304 305 305 303 303 303 304 303 303 304 306 308 309 311
326 319 311 311 311 310 309 308 307 305 304 304 304 303 302 302 301 301 304 304 301 300 300 301 299 297 297 297 297 299 300 301 302
311 312 311 310 309 308 307 306 304 302 301 301 301 301 300 300 302 301 299 297 296 297 296 295 294 294 295 294 294 295 296 298 299
311 310 310 310 309 307 305 303 301 298 295 295 296 296 298 300 298 297 295 295 294 293 293 293 293 293 293 293 294 295 295 295 298
310 311 310 309 307 304 302 299 297 295 294 293 294 293 293 292 294 293 294 292 293 293 293 293 293 292 291 292 291 291 292 294 296
310 310 309 306 304 301 298 295 294 294 293 293 292 292 291 290 291 292 292 291 291 291 290 291 291 290 290 290 290 290 291 293 294
310 309 306 303 300 297 295 294 294 293 293 292 292 291 290 290 290 290 289 289 290 290 290 290 289 289 289 289 289 290 291 292 294

GFSFLT1_850_thetae_039.txt.gz
Theta_e
314 312 311 311 311 311 311 311 315 316 316 313 311 311 312 311 311 310 310 313 315 317 321 326 325 326 323 324 325 324 325 326 324
316 313 311 311 311 311 311 311 312 312 313 314 314 315 315 318 320 320 318 313 310 314 319 325 326 326 327 329 326 326 325 321 316
319 314 313 313 313 313 314 315 316 316 317 318 319 319 322 323 324 324 323 321 319 315 314 317 326 326 324 326 326 326 327 326 327
316 314 315 315 316 316 317 317 318 319 320 321 321 323 324 324 325 325 325 325 326 326 325 324 322 327 326 325 321 316 319 326 326
318 319 317 317 318 318 319 320 321 322 323 324 325 326 328 328 328 328 328 328 328 327 327 327 326 327 327 326 326 326 325 319 319
321 322 321 321 321 321 321 322 324 325 327 327 328 328 328 328 327 327 327 327 327 327 328 327 328 328 328 327 327 326 326 325 325
325 323 322 323 323 324 325 326 327 327 327 328 328 328 327 327 327 327 326 326 326 326 327 328 329 328 328 328 328 327 327 331 330
323 324 324 324 325 327 328 328 328 328 328 327 327 327 327 327 327 327 326 324 324 325 324 326 329 328 327 327 327 327 328 328 328
326 326 326 326 327 328 329 328 328 327 327 327 327 327 328 327 326 325 324 322 323 324 325 325 324 324 324 323 327 327 327 327 327
327 327 327 327 328 329 328 326 325 326 325 325 325 325 326 322 318 318 318 319 319 319 318 316 315 317 319 321 325 326 326 325 325
328 328 329 329 329 327 326 326 326 326 325 324 322 313 311 310 310 310 310 310 311 310 309 309 311 312 314 318 320 321 322 323 324
330 331 330 329 328 326 325 325 325 323 319 311 310 309 308 307 306 305 305 305 306 307 308 309 311 313 313 314 314 316 317 317 317
330 328 328 327 326 325 320 313 310 310 310 309 309 308 307 305 304 304 306 307 308 306 305 305 305 305 305 307 308 308 308 309 311
329 328 327 326 316 311 310 310 309 309 308 307 306 305 304 304 303 303 301 302 303 303 301 300 301 301 300 299 299 298 299 300 302
328 325 312 311 311 309 309 308 306 305 304 304 303 303 302 302 301 300 301 300 299 297 297 297 297 296 295 295 295 295 295 296 297
315 311 311 310 311 310 308 306 304 303 301 301 302 301 301 299 300 301 300 298 296 295 295 295 294 295 295 294 294 294 294 295 298
311 310 311 311 310 308 305 303 301 298 297 296 296 295 297 299 300 296 296 294 294 293 293 293 293 293 293 293 292 292 292 293 296
311 311 311 310 307 303 302 300 298 296 295 293 293 293 292 292 293 293 293 292 292 292 292 292 292 291 291 291 291 291 290 292 295
311 311 309 306 303 300 299 297 296 294 293 293 292 291 290 289 290 291 291 291 291 291 290 291 290 290 290 290 289 289 290 292 294
310 308 306 303 300 298 296 295 294 293 292 292 291 290 290 289 289 288 288 289 289 289 289 289 289 289 288 288 288 288 290 291 293

GFSFLT1_850_thetae_042.txt.gz
Theta_e
314 312 311 311 310 311 311 312 314 316 316 312 311 312 312 314 315 315 313 311 310 312 315 317 324 325 326 324 320 322 323 324 325
316 314 311 311 311 311 311 312 312 312 313 315 316 317 319 322 322 321 319 318 315 312 312 316 324 326 325 326 327 325 325 327 327
319 316 314 314 314 314 315 316 317 317 318 319 321 321 323 324 324 325 325 325 325 325 323 320 318 325 327 323 323 324 323 326 326
318 316 317 317 317 317 317 318 318 319 321 322 322 324 326 327 327 327 327 327 327 327 326 326 326 324 324 326 325 324 324 319 319
318 319 319 320 320 319 321 320 322 323 324 325 327 327 328 327 327 327 327 327 327 327 327 328 327 326 326 327 327 326 326 325 325
322 323 322 322 322 322 323 324 325 326 327 327 328 328 327 327 326 327 326 326 326 326 326 328 329 328 329 329 328 328 327 327 327
324 324 323 323 324 325 326 326 327 327 327 327 327 327 327 327 326 326 327 326 325 325 324 325 325 328 330 329 328 328 327 327 327
324 324 324 324 325 326 327 328 328 327 327 327 326 326 326 327 327 326 326 324 323 322 323 324 324 324 325 325 325 326 328 328 328
325 325 325 325 326 327 328 328 326 326 325 325 325 324 324 324 324 321 318 318 317 319 319 320 320 319 319 319 321 322 323 326 327
327 327 326 326 328 328 328 326 325 326 325 324 324 324 321 314 311 310 310 309 309 311 312 312 312 311 311 312 315 318 321 322 323
328 328 329 329 329 328 325 325 325 324 323 322 319 312 309 309 308 307 306 305 305 305 306 306 307 308 310 312 313 314 316 318 319
329 329 328 327 327 327 325 325 321 315 311 310 309 308 308 307 306 305 304 304 305 306 307 307 306 306 307 309 311 312 313 314 315
329 329 328 326 325 325 318 311 311 310 310 309 308 307 306 305 304 303 304 305 305 304 303 302 301 301 302 302 302 302 302 303 306
329 328 327 327 323 311 310 310 309 308 307 306 305 304 304 303 302 301 301 300 300 300 298 298 297 297 297 297 297 296 296 296 297
329 327 325 311 311 310 310 309 307 305 304 303 302 302 302 301 301 300 299 299 299 298 296 295 295 295 294 294 294 294 294 295 295
326 318 311 310 311 311 309 306 303 302 301 302 302 300 300 298 298 299 300 299 296 296 295 294 294 294 294 294 294 293 293 294 294
314 311 311 311 311 309 306 303 300 299 299 298 297 295 297 299 298 296 295 295 294 294 293 293 293 292 292 292 292 292 292 291 293
310 311 311 311 310 307 302 300 299 297 295 294 293 293 292 292 293 293 293 292 292 292 292 292 291 291 291 290 290 290 290 290 294
311 311 311 310 307 302 299 298 297 295 294 293 292 291 290 289 290 291 292 291 290 291 290 290 290 290 289 289 289 288 288 291 293
311 311 310 307 302 299 298 296 294 293 293 292 292 291 290 289 289 287 289 290 290 290 289 289 289 289 288 288 287 287 290 291 292

GFSFLT1_850_thetae_045.txt.gz
Theta_e
312 311 311 311 311 311 314 317 319 319 319 316 312 313 315 319 321 321 319 316 312 310 312 315 320 322 321 325 323 320 323 326 326
313 312 312 312 312 312 312 312 313 313 314 319 323 320 321 323 324 324 324 323 322 321 314 313 316 326 327 326 326 328 326 323 326
316 314 314 314 315 315 316 317 317 318 319 319 321 322 324 324 325 325 325 325 325 325 325 325 324 320 325 327 324 319 324 324 325
318 316 317 317 317 317 318 318 319 320 322 323 324 325 326 327 327 327 327 327 327 327 327 327 326 325 324 323 325 324 325 325 324
323 319 319 320 319 320 321 321 322 323 325 326 327 327 327 327 327 326 326 326 326 326 326 328 328 329 329 327 327 328 327 327 326
321 322 322 322 322 322 323 324 325 326 327 327 327 327 327 327 326 326 326 326 325 324 325 324 326 326 328 330 330 330 329 328 328
323 324 323 323 323 324 325 326 327 327 327 327 327 326 326 326 326 327 326 326 325 324 323 323 323 324 324 325 326 327 327 328 329
325 324 323 324 324 325 327 328 328 327 326 326 325 325 324 324 323 323 323 320 318 318 318 320 321 321 321 321 322 322 322 322 323
324 324 324 325 326 327 328 328 326 325 325 324 324 323 323 322 319 312 310 310 310 310 312 313 314 315 314 313 313 314 314 316 318
326 326 326 326 327 328 328 326 325 325 325 324 323 322 318 312 309 309 308 307 306 306 306 307 307 307 307 308 309 310 311 313 315
328 328 327 328 328 327 326 325 325 324 321 316 312 310 309 309 308 307 306 305 304 304 305 305 306 307 307 308 309 311 312 314 315
328 328 327 327 326 325 326 325 317 311 310 309 309 308 307 307 306 305 304 303 304 305 305 304 302 302 301 301 302 303 304 305 306
329 328 328 327 326 325 322 311 310 310 309 307 306 305 304 304 303 302 302 302 301 300 300 299 298 297 297 296 296 296 297 296 298
330 329 328 326 326 317 311 310 311 310 306 304 303 303 303 302 301 300 300 300 299 299 299 297 296 296 295 295 295 295 295 295 295
330 328 326 323 311 311 311 311 309 306 303 302 302 302 301 300 300 300 299 298 299 298 296 296 295 295 295 295 295 294 294 294 294
329 325 316 311 311 311 311 309 305 302 302 301 300 299 299 297 297 298 297 296 296 296 295 294 294 294 294 294 294 294 294 293 293
322 314 311 311 312 311 309 304 301 301 300 297 296 296 296 298 298 297 296 295 295 294 293 294 294 293 293 293 293 293 293 292 292
313 310 311 311 311 310 306 302 300 298 296 295 295 294 294 293 295 294 294 293 293 293 293 293 292 292 292 291 291 291 291 290 291
310 310 311 311 311 308 303 300 298 295 294 294 294 292 291 290 291 292 292 291 291 291 291 292 291 291 290 290 290 289 289 289 293
309 310 311 310 308 304 300 297 295 294 294 293 292 291 290 289 288 289 290 291 291 291 290 291 290 290 289 288 288 287 287 290 291

GFSFLT1_850_thetae_051.txt.gz
Theta_e
312 311 311 311 312 319 328 326 326 327 324 318 312 315 320 327 330 330 329 328 322 321 316 311 312 315 317 319 318 319 319 320 322
312 311 311 311 311 312 313 316 317 315 313 313 317 318 321 324 330 330 330 329 324 324 323 323 323 321 320 325 328 323 325 327 328
313 313 313 314 315 315 315 315 315 317 319 319 320 322 323 329 331 331 330 328 326 326 326 327 328 329 327 325 323 327 329 324 320
315 315 316 316 317 317 317 318 319 320 321 322 324 325 326 327 331 330 330 328 326 326 327 327 327 328 329 331 331 328 325 325 327
316 317 317 317 318 319 320 321 322 323 324 326 326 326 328 329 329 329 328 325 325 326 325 324 325 325 324 324 326 328 330 331 331
320 322 319 320 320 321 321 322 324 326 327 327 326 326 328 327 326 326 325 325 326 325 325 324 322 321 321 320 320 321 323 326 328
329 320 320 321 321 322 323 325 327 328 329 327 324 323 322 321 321 319 320 319 318 318 316 316 316 315 316 318 317 316 317 318 319
321 325 322 324 322 326 327 328 330 327 324 322 321 322 319 319 316 317 315 311 310 310 311 311 312 312 313 313 313 312 312 312 312
328 328 329 327 328 329 329 328 325 326 325 325 323 320 317 315 313 310 310 309 308 307 308 308 308 307 307 307 306 306 306 307 307
329 329 328 329 328 329 327 325 323 325 325 321 313 311 310 310 309 308 308 307 306 306 306 305 305 305 305 306 306 306 306 306 305
330 329 329 328 327 327 327 327 326 326 319 311 310 310 308 307 306 305 305 305 304 304 304 304 304 305 304 302 300 300 299 300 300
331 330 327 327 326 326 326 325 325 314 311 312 310 307 305 303 303 303 303 303 303 303 303 302 301 300 300 299 298 298 298 298 297
329 328 327 327 327 326 325 325 312 311 312 310 305 303 303 302 302 302 302 301 300 301 301 300 300 299 298 297 297 297 296 296 297
328 328 328 328 327 326 325 312 311 312 310 305 303 302 301 302 301 301 300 300 300 299 298 297 297 297 297 296 296 296 296 296 296
329 329 329 329 327 324 311 311 312 311 307 303 301 301 300 299 300 300 299 299 299 297 296 296 295 296 296 296 296 295 295 295 295
330 329 329 329 326 312 311 312 312 309 304 301 300 301 300 299 298 299 298 298 297 296 295 295 295 295 295 295 295 295 295 294 294
331 329 330 327 317 311 311 311 308 306 302 299 300 302 301 301 299 299 297 296 296 295 295 295 295 295 295 294 294 294 294 294 293
330 329 328 325 310 310 311 309 305 302 300 298 298 300 301 299 297 297 297 296 295 295 295 295 295 294 293 293 292 292 291 291 291
329 327 319 313 311 310 310 307 304 300 298 297 297 295 294 295 296 297 296 296 295 294 294 293 293 293 292 292 291 290 290 290 291
324 318 309 314 313 310 310 304 302 298 297 296 295 294 294 294 294 294 295 294 294 293 293 292 292 292 291 290 290 290 290 291 292

GFSFLT1_850_thetae_054.txt.gz
Theta_e
311 310 310 311 312 316 325 322 325 328 322 316 311 317 322 330 329 330 329 327 324 323 322 322 316 313 314 316 322 320 320 319 322
311 311 311 311 312 314 318 317 319 316 313 313 317 320 324 329 330 329 328 328 326 326 326 327 328 328 326 324 322 327 324 321 326
312 312 312 312 312 312 313 312 313 315 318 319 320 322 324 329 330 329 329 329 327 326 328 328 329 329 330 331 331 326 324 328 327
313 314 315 315 316 316 317 318 319 320 321 322 324 325 326 329 329 329 328 327 325 326 325 324 324 325 324 325 327 329 331 332 328
315 316 316 317 317 318 319 320 321 322 324 325 325 327 328 328 328 328 327 326 325 325 324 324 324 322 322 322 321 322 323 325 329
317 318 318 318 319 320 321 322 324 326 328 328 325 325 325 325 326 325 323 320 318 320 319 318 317 316 316 316 316 317 318 319 321
326 321 319 320 320 321 322 325 327 329 328 325 323 323 321 321 319 318 317 316 313 312 312 312 312 313 313 313 313 313 313 313 313
327 321 321 321 321 324 326 329 328 327 325 324 322 321 320 318 317 315 313 311 310 310 310 310 310 309 309 309 308 307 307 307 307
323 325 327 325 327 329 329 329 328 326 325 325 323 316 313 312 311 310 310 309 308 308 308 308 307 306 305 305 305 306 306 306 306
327 328 327 327 328 329 328 327 326 326 325 324 312 311 311 310 308 307 307 306 306 306 305 305 305 304 305 305 304 303 302 301 301
328 328 328 328 326 326 327 327 326 326 323 311 311 311 309 307 305 304 304 304 304 304 304 303 303 303 302 301 301 300 299 299 299
329 328 327 327 326 326 326 325 325 324 312 313 312 309 305 303 303 303 303 303 303 302 302 302 301 300 300 300 299 298 298 298 298
330 329 329 327 326 326 325 325 322 311 313 313 309 306 303 302 302 302 302 302 302 301 301 299 299 298 298 298 297 297 297 297 297
330 329 327 327 327 326 325 325 311 312 312 311 307 304 302 301 301 301 301 300 300 299 298 298 297 297 297 297 297 296 296 296 296
330 328 328 327 328 327 324 312 312 312 311 308 304 303 301 300 299 300 299 299 299 298 297 297 296 296 296 296 296 296 296 295 295
330 328 328 328 328 326 318 311 312 311 308 305 302 301 302 301 301 299 299 299 298 297 296 296 296 295 295 295 295 295 295 295 295
330 329 328 329 328 325 313 312 312 310 307 302 301 301 301 301 302 299 298 298 296 296 296 296 296 295 295 294 294 293 293 293 293
330 330 329 328 328 323 321 314 312 310 305 301 300 299 301 300 298 298 297 297 296 296 295 295 295 294 294 294 293 293 292 292 294
329 329 327 328 326 320 312 311 310 305 301 301 299 297 296 296 296 297 297 296 296 295 294 294 294 293 293 292 292 292 291 291 293
327 326 326 326 320 313 312 309 306 304 301 299 297 296 296 295 295 295 296 295 294 294 294 293 292 292 291 291 291 290 291 292 292

GFSFLT1_850_thetae_057.txt.gz
Theta_e
310 310 311 312 314 324 324 329 331 331 322 312 314 320 328 329 328 328 327 327 325 324 325 323 325 322 320 320 322 325 326 316 319
310 310 310 311 313 319 319 317 318 316 312 315 318 323 328 328 329 328 327 328 327 326 329 330 329 331 331 330 327 322 324 328 325
311 311 311 311 311 312 312 312 313 316 318 319 321 324 328 330 328 328 328 328 326 326 327 327 328 326 326 329 331 332 331 325 326
312 313 314 315 315 315 316 317 318 320 321 323 325 326 329 329 328 328 327 327 326 324 323 323 323 324 324 324 324 324 326 329 331
314 315 316 316 317 318 319 319 320 322 324 325 326 328 328 328 327 327 327 327 322 322 323 322 320 319 318 316 316 317 317 319 322
315 316 316 317 318 319 320 321 324 326 327 325 325 324 323 324 326 325 322 319 318 317 315 315 314 314 314 313 313 314 314 314 314
317 319 318 319 320 320 322 325 327 328 326 324 323 323 322 321 320 318 316 315 312 312 311 311 312 312 311 310 310 309 309 308 308
325 319 320 320 321 322 325 327 327 326 325 324 323 322 320 317 316 314 312 310 309 310 309 309 309 308 307 306 306 305 305 306 306
327 322 322 322 323 325 327 327 328 326 325 324 324 317 314 311 311 310 309 308 307 307 307 306 306 305 305 305 305 305 304 303 302
326 324 325 324 327 327 325 326 327 326 325 325 317 311 311 311 308 306 305 305 305 305 305 304 304 303 303 303 302 301 301 300 300
323 326 328 325 325 328 328 327 326 325 325 318 311 312 310 307 305 304 303 303 304 303 303 303 302 302 301 301 300 300 299 298 298
326 328 328 326 327 327 326 326 325 325 317 312 313 311 307 304 303 303 303 303 303 302 302 301 300 299 299 298 298 298 298 297 298
328 328 327 327 327 326 326 325 325 318 312 314 313 309 305 302 302 302 302 302 301 301 300 300 299 298 297 297 297 297 297 297 297
329 329 328 328 327 326 325 325 323 312 312 313 312 308 304 302 301 301 301 300 300 299 299 299 298 297 296 297 296 296 296 297 296
330 330 329 329 326 326 326 325 314 312 313 313 311 306 303 302 301 300 300 299 299 299 298 297 297 296 296 296 296 295 295 295 295
330 331 330 328 327 327 327 324 312 312 313 313 308 304 303 302 301 300 300 299 298 298 297 297 297 296 296 296 295 295 294 294 294
330 331 330 328 327 328 327 320 312 312 313 313 309 303 303 302 302 301 298 298 297 297 297 296 296 295 295 294 294 293 293 293 295
332 332 329 328 327 328 325 318 316 312 312 311 306 301 301 300 298 298 298 298 297 297 296 296 295 294 294 293 293 292 292 292 294
332 331 329 327 326 327 323 321 312 311 311 310 303 299 299 298 297 297 297 297 296 296 295 294 294 292 292 292 292 292 291 292 294
332 330 328 326 325 325 320 314 313 311 311 307 301 299 297 296 296 296 297 296 295 295 295 294 293 292 291 291 291 290 291 292 293

GFSFLT1_850_thetae_063.txt.gz
Theta_e
310 311 328 328 329 329 330 330 330 328 322 313 323 326 326 327 324 326 326 327 328 330 329 330 328 330 329 327 323 322 328 324 320
310 310 314 323 325 328 329 329 329 326 312 318 326 327 326 327 327 327 326 328 330 330 330 329 329 329 330 333 333 333 325 325 330
310 310 311 314 317 323 319 319 319 313 317 322 325 326 326 327 327 326 324 327 326 323 322 322 326 327 326 327 329 329 331 331 330
310 311 311 313 315 317 315 314 316 319 320 322 323 326 327 326 326 326 325 326 325 320 322 325 326 325 320 319 318 318 321 323 327
312 312 313 313 313 313 314 318 320 321 323 324 325 326 327 326 326 326 326 325 321 321 322 320 320 318 314 313 313 313 313 314 315
313 315 315 316 317 317 319 320 322 324 324 324 325 326 325 324 324 323 320 318 318 316 315 314 313 312 312 312 311 310 310 309 309
315 316 316 317 318 319 320 321 325 325 324 324 324 323 323 321 319 318 317 315 321 314 311 311 311 310 309 307 306 306 305 305 305
316 316 317 318 319 320 321 323 326 327 324 323 323 323 321 319 316 314 313 311 314 310 308 307 307 307 305 304 304 304 304 304 303
316 317 318 319 320 321 322 325 326 325 325 324 323 323 320 314 311 310 309 307 307 306 305 305 305 304 303 303 303 302 301 301 301
318 319 319 320 320 322 323 325 326 326 325 323 322 323 312 310 310 307 305 304 304 304 304 304 303 302 302 301 300 300 300 300 300
323 322 320 320 321 324 325 326 326 326 324 324 323 320 311 311 307 304 303 303 303 303 303 302 301 300 299 298 298 298 298 298 298
327 325 323 324 324 326 326 326 326 326 324 324 324 311 312 310 306 303 302 302 302 302 301 301 300 299 298 297 298 298 297 298 298
326 325 324 325 326 326 326 327 327 325 324 324 313 312 311 308 304 302 302 301 301 301 300 299 299 298 297 297 296 297 297 297 297
325 325 323 325 327 326 326 327 326 325 324 318 311 311 310 306 304 302 302 301 300 300 299 299 298 297 297 297 297 297 296 296 296
326 326 325 326 327 326 327 327 326 325 324 311 311 311 309 306 304 302 301 301 300 300 299 298 297 297 297 297 296 296 296 295 295
329 327 326 327 327 327 327 327 325 324 322 311 310 309 308 306 304 302 301 300 300 300 299 298 297 297 297 296 296 296 295 295 294
332 329 327 327 328 328 328 328 325 325 319 311 310 308 307 306 304 302 301 301 300 299 298 297 297 296 296 295 295 295 294 293 294
330 329 329 327 328 328 328 328 325 325 319 312 310 308 308 304 303 301 300 300 299 299 298 297 296 295 295 294 294 293 293 292 294
329 329 330 328 328 329 328 328 325 325 320 314 312 309 307 304 301 300 299 298 298 298 297 296 295 294 294 293 293 292 291 291 291
329 328 329 328 328 328 327 325 325 324 322 317 309 308 306 304 301 299 299 297 297 296 295 295 294 294 293 292 292 291 290 289 289

GFSFLT1_850_thetae_066.txt.gz
Theta_e
312 329 331 332 327 331 334 332 329 327 317 315 320 324 324 323 325 325 327 331 331 331 331 331 332 332 331 330 330 325 326 326 328
310 312 328 328 327 328 330 328 328 326 312 320 325 325 326 326 326 325 328 329 329 330 326 327 330 329 332 334 332 333 329 329 330
310 310 316 320 324 326 327 327 327 313 315 321 326 326 327 326 325 324 324 326 324 322 322 324 327 326 325 326 327 326 329 330 330
310 310 312 314 316 320 316 317 314 317 319 323 325 326 326 326 326 325 325 325 323 323 325 326 324 322 318 316 315 315 316 321 323
311 311 312 313 314 314 314 315 318 319 321 322 324 326 327 326 326 326 325 322 323 320 317 317 316 313 312 312 313 312 312 312 312
312 312 313 313 314 314 316 319 320 322 323 324 326 326 325 324 324 321 318 318 320 315 313 313 312 311 310 310 309 308 307 307 307
313 314 315 316 317 318 319 320 322 324 324 325 325 323 322 321 319 318 316 321 318 312 309 309 308 308 307 306 305 305 305 305 305
314 315 316 317 318 319 320 321 324 325 324 323 323 323 322 318 316 314 312 317 315 309 306 306 306 305 304 304 304 304 303 303 302
315 316 317 318 319 320 321 323 325 326 325 324 323 323 322 315 311 310 309 308 308 307 305 304 304 303 303 303 302 301 301 301 301
315 316 317 318 319 321 322 324 325 325 325 324 324 323 322 311 311 309 306 304 304 304 304 303 303 302 302 301 300 299 299 299 299
316 318 318 319 320 321 323 325 326 326 325 324 324 323 318 311 310 306 304 303 303 303 303 302 302 301 300 299 299 299 298 298 298
322 320 319 319 320 321 324 325 326 326 325 324 324 323 311 311 309 306 304 303 302 302 302 301 300 300 299 299 298 297 297 298 298
323 325 324 322 323 324 325 326 326 326 325 324 323 317 311 310 308 305 302 302 301 301 300 300 299 299 298 297 297 297 297 297 297
321 325 326 326 325 325 325 326 326 326 325 324 323 311 311 309 306 304 302 302 301 300 299 299 299 298 298 298 297 297 297 297 296
319 324 326 325 324 326 326 326 327 326 325 323 319 311 310 308 305 304 303 302 301 300 300 299 298 298 298 298 297 296 296 296 296
327 325 325 325 324 325 327 326 327 326 325 323 317 310 310 308 307 305 303 302 301 301 300 299 298 298 298 297 297 296 296 295 295
331 330 327 326 325 325 327 327 326 326 325 322 315 309 308 309 308 304 304 302 302 301 300 299 299 298 297 296 296 295 295 295 294
331 330 330 328 326 326 327 327 327 327 325 323 315 309 310 308 307 306 303 302 301 300 299 299 298 297 296 295 295 294 294 293 293
330 329 328 329 328 327 327 327 327 326 323 322 317 314 311 306 305 305 304 302 300 299 299 299 297 296 295 295 294 293 292 292 291
328 328 328 328 328 328 327 327 327 327 326 323 316 322 312 308 305 302 302 300 299 298 298 297 296 295 294 293 293 292 291 291 290

GFSFLT1_850_thetae_069.txt.gz
Theta_e
321 333 330 324 318 326 335 333 328 324 312 318 323 323 322 324 324 327 332 331 332 332 331 333 332 332 332 334 333 325 327 328 332
327 331 331 328 331 333 334 329 328 323 313 321 324 324 325 324 324 328 329 329 329 328 323 329 329 330 332 332 332 332 331 331 331
311 324 330 328 326 328 327 326 325 314 316 323 324 325 325 325 323 324 326 327 322 323 325 324 324 324 325 326 327 326 328 329 329
310 313 321 321 323 324 322 322 316 314 318 322 324 326 326 325 325 324 324 324 323 323 323 322 317 317 315 314 314 314 314 315 317
311 311 316 317 319 318 316 314 316 318 320 322 324 327 327 326 325 325 322 321 322 317 316 315 314 312 311 311 311 311 311 310 310
311 312 313 314 316 315 314 317 318 320 322 324 325 326 325 325 324 320 319 322 318 314 312 311 311 309 308 308 307 306 306 306 306
312 312 313 314 314 314 317 319 320 322 324 324 325 324 323 321 319 317 315 321 315 311 308 307 307 306 306 305 305 304 304 304 304
313 314 314 315 316 317 319 320 322 323 324 324 323 323 323 320 316 314 314 316 311 308 306 305 305 304 304 304 304 303 303 302 302
313 315 316 317 317 318 319 321 323 324 324 323 323 323 322 319 312 310 309 309 308 305 304 304 304 303 303 302 302 301 300 300 300
314 315 316 317 318 319 320 321 323 325 325 324 324 323 322 316 311 310 307 306 304 304 303 303 303 302 301 301 300 300 300 299 299
314 316 316 317 319 319 320 322 323 324 325 325 324 323 323 313 311 309 306 304 303 303 303 302 302 301 300 300 300 299 299 299 299
316 316 317 318 319 320 321 322 324 325 325 325 323 323 323 311 311 308 305 303 303 302 302 301 301 300 299 299 298 298 299 299 299
318 318 319 320 319 320 321 323 325 325 325 324 323 323 319 311 310 307 305 303 302 302 301 300 300 299 299 298 298 298 298 298 298
319 319 323 323 322 321 322 323 325 326 326 325 324 323 315 311 310 308 305 303 302 302 301 300 300 299 298 298 298 298 298 297 297
322 319 322 326 326 325 324 325 326 326 326 325 324 323 313 311 309 307 305 304 303 302 301 301 300 299 298 298 298 298 297 297 296
327 323 319 325 327 326 325 326 326 326 326 324 323 322 314 310 310 308 306 304 303 302 302 301 300 299 298 298 298 297 297 296 296
331 329 325 322 325 325 324 325 326 326 326 324 323 317 315 312 311 308 307 305 304 302 302 301 300 299 298 298 297 296 296 295 295
332 331 330 327 326 325 325 324 326 327 326 325 322 315 315 313 313 310 308 306 304 302 302 301 300 299 298 298 297 296 295 294 294
331 331 331 331 330 328 326 325 325 327 326 325 325 323 320 311 311 313 309 307 304 303 302 300 299 299 298 297 295 295 294 294 293
331 331 330 329 329 329 328 327 326 326 326 326 326 324 323 323 317 307 308 307 304 302 300 299 299 298 296 295 294 293 292 292 292